Shohruh Masharipov

Olheiro-Chefe - Pakhtakor
5 Dez 2027
Domingo
Processo

Personalidade

Adaptabilidade (8) Ambição (11) Controvérsia (18) Lealdade (9) Pressão (13) Profissionalismo (13) Espírito Esportivo (17) Temperamento (12)

Perfil

Estilo de Treinamento Democrático
Licença Continental B
Determinação 7
Gestão de Pessoas 8
Motivação 12
Disciplina 10
Satisfação no Trabalho
100%
Fadiga
0%
Função Olheiro-Chefe
Salário 24.6K p/s
Contrato 14.03.2028

Desempenho

Comportamento Bom
Eficácia do Treinamento
45%
Desenvolvimento do Jogador
45%
Prevenção de Lesões
50%
Implementação Tática
25%

Eventos Recentes

Avaliou um jogador agora
Participou de uma reunião de recrutamento agora
Avaliou um jogador agora
Avaliou um jogador agora
Avaliou um jogador agora
Avaliou um jogador 7d atrás
Avaliou um jogador 7d atrás
Avaliou um jogador 7d atrás

Monitorando agora

274
Jogador Clube Status Habilidade Confiança Observado Última observação Último voto
Luis Chávez Dinamo Moscow Ativo 130 / 130 40% 10 04.12.2027 -
Zinho Vanheusden Waasland-Beveren Ativo 132 / 129 40% 1 04.12.2027 -
Gabriel Taliari Juventude Ativo 121 / 127 40% 4 02.12.2027 -
Everton Moraes Ordabasy Ativo 121 / 113 40% 4 02.12.2027 -
Diyor Xolmatov Navbahor Ativo 129 / 120 40% 3 02.12.2027 -
François Kamano Sochi Ativo 119 / 123 40% 6 01.12.2027 -
Tenton Yenne Akron Ativo 120 / 115 40% 2 01.12.2027 -
Dean Mkhize Ajax Cape Town Ativo 122 / 117 40% 3 30.11.2027 -
Zayd El Kandoussi Mouscron Ativo 98 / 107 40% 1 30.11.2027 -
Yegor Golenkov Rostov Ativo 128 / 124 40% 3 29.11.2027 -
Ettore Gliozzi Mantova Ativo 126 / 129 40% 1 29.11.2027 -
Daniil Fomin Dinamo Moscow Ativo 126 / 124 40% 3 28.11.2027 -
Matheus Thuler Vissel Kobe Ativo 125 / 127 40% 2 28.11.2027 -
Eldar Ćivić Baltika Ativo 118 / 121 40% 12 26.11.2027 -
Matías Sosa Arsenal Ativo 121 / 105 40% 5 26.11.2027 -
Teruki Hara Nagoya Grampus Ativo 112 / 131 40% 2 26.11.2027 -
Vyacheslav Karavaev Zenit Ativo 130 / 132 40% 1 26.11.2027 -
Daniel Sosah Aktobe Ativo 113 / 105 40% 2 24.11.2027 -
Mariano Bracamonte Deportivo Riestra Ativo 128 / 114 40% 6 24.11.2027 -
Srđan Babić Spartak Moscow Ativo 138 / 124 40% 3 23.11.2027 -
Matvey Lukin Zenit Ativo 114 / 121 40% 1 23.11.2027 -
Júlio Romão Akhmat Grozny Ativo 118 / 123 40% 8 21.11.2027 -
Saidazamat Mirsaidov Navbahor Ativo 104 / 112 40% 1 21.11.2027 -
Moisés CSKA Moscow Ativo 134 / 127 40% 6 20.11.2027 -
Carlos Gruezo Santos Laguna Ativo 111 / 138 40% 7 20.11.2027 -
Léo Natel Ordabasy Ativo 122 / 118 40% 10 20.11.2027 -
Nikolay Giorgobiani Fakel Ativo 109 / 111 40% 2 19.11.2027 -
Aleksandar Boljević Sogdiana Ativo 123 / 111 40% 3 17.11.2027 -
Ştefan Baiaram Voluntari Ativo 118 / 127 40% 2 17.11.2027 -
Juan Pablo Barinaga Patronato Ativo 102 / 107 40% 2 15.11.2027 -
Carlos Cantillo Jaguares Ativo 108 / 109 40% 2 15.11.2027 -
Federico Pérez Agropecuario Argentino Ativo 116 / 123 40% 5 14.11.2027 -
Axel Batista Quilmes Ativo 127 / 117 40% 1 14.11.2027 -
Juan Salas Patronato Ativo 121 / 105 40% 5 13.11.2027 -
Nicolás Retamar Ferro Carril Oeste Ativo 119 / 118 40% 2 11.11.2027 -
Julián Palacios Unión de Santa Fe Ativo 123 / 122 40% 2 11.11.2027 -
Rodrigo González Aldosivi Ativo 119 / 128 40% 5 09.11.2027 -
Fernando Martínez Central Córdoba SdE Ativo 122 / 120 40% 4 08.11.2027 -
Carlos Gugenheim Almirante Brown Ativo 121 / 118 40% 3 07.11.2027 -
Lucas Angelini Temperley Ativo 121 / 108 40% 1 07.11.2027 -
Ljupce Doriev BATE Ativo 126 / 107 40% 2 06.11.2027 -
Slobodan Tedić Akron Ativo 114 / 106 40% 3 05.11.2027 -
Luca Martínez Dupuy Godoy Cruz Ativo 132 / 114 40% 5 05.11.2027 -
Gabriel Obredor Deportivo Riestra Ativo 113 / 119 40% 3 05.11.2027 -
Karlo Bartolec Astana Ativo 111 / 106 40% 4 05.11.2027 -
Luka Gagnidze Dinamo Moscow Ativo 121 / 123 40% 1 04.11.2027 -
Martín Vallejos Quilmes Ativo 114 / 116 40% 1 04.11.2027 -
Connor Ronan Colorado Rapids Ativo 133 / 117 40% 4 03.11.2027 -
Lucas Ríos Atlanta Ativo 118 / 109 40% 4 31.10.2027 -
Jasur Yaxshiboyev Lokomotiv Ativo 120 / 113 40% 1 30.10.2027 -
Giorgi Zaria Aktobe Ativo 117 / 117 40% 5 29.10.2027 -
Jorginho Kairat Ativo 107 / 119 40% 5 28.10.2027 -
Koffi Kouao Neftchi Ativo 128 / 126 40% 6 28.10.2027 -
Osaze Urhoghide FC Dallas Ativo 99 / 113 40% 1 28.10.2027 -
Älibek Qasym Astana Ativo 122 / 113 40% 1 28.10.2027 -
Noah Streit CF Montreal Ativo 124 / 123 40% 1 26.10.2027 -
Ivan Sergeev Lokomotiv Moscow Ativo 120 / 123 40% 1 24.10.2027 -
Jáder Valencia Junior Ativo 110 / 116 40% 1 24.10.2027 -
Silvio Merkaj Vicenza Ativo 123 / 109 40% 1 23.10.2027 -
Arbër Hoxha Dinamo Zagreb Ativo 120 / 122 40% 1 23.10.2027 -
Jacques Siwe Rubin Ativo 119 / 119 40% 4 20.10.2027 -
Jean Pierre Rosso Liverpool Montevideo Ativo 125 / 122 40% 4 16.10.2027 -
Franco González Penarol Ativo 124 / 123 40% 1 16.10.2027 -
Keita Baldé Monza Ativo 126 / 119 40% 1 16.10.2027 -
Cedric Gondo Reggiana Ativo 114 / 122 40% 1 16.10.2027 -
Iván Vaquero Morón Ativo 101 / 112 40% 1 16.10.2027 -
Ondřej Lingr Korona Ativo 122 / 131 40% 2 14.10.2027 -
Jorge Meireles AVS Ativo 102 / 121 40% 1 14.10.2027 -
Juan Esteban Ávalo Aguilas Doradas Ativo 104 / 117 40% 1 09.10.2027 -
Axel Guerra Chacarita Juniors Ativo 122 / 110 40% 3 08.10.2027 -
Florin Tănase FCSB Ativo 128 / 125 40% 2 07.10.2027 -
Marcus Vinicius BATE Ativo 115 / 108 40% 3 07.10.2027 -
Tomás González Unión de Santa Fe Ativo 106 / 118 40% 1 06.10.2027 -
Lisandro Montenegro Chacarita Juniors Ativo 124 / 108 40% 5 04.10.2027 -
Callum Robinson Cardiff City Ativo 115 / 121 40% 1 04.10.2027 -
Marc Gual Kairat Ativo 106 / 119 40% 7 02.10.2027 -
Yeferson Rodallega Envigado Ativo 108 / 110 40% 2 02.10.2027 -
Luciano Recalde Quilmes Ativo 118 / 110 40% 2 01.10.2027 -
Agustín Dattola Almirante Brown Ativo 117 / 120 40% 1 01.10.2027 -
Enzo Hoyos Ferro Carril Oeste Ativo 110 / 120 40% 1 29.09.2027 -
Emerson Batalla Atletico Bucaramanga Ativo 121 / 118 40% 1 26.09.2027 -
Brayan Vera CF Montreal Ativo 104 / 124 40% 1 26.09.2027 -
Samuel Adegbenro CSKA Moscow Ativo 120 / 125 40% 1 26.09.2027 -
Diego Armando Díaz Unión de Santa Fe Ativo 106 / 110 40% 1 26.09.2027 -
Lautaro Blanco Boca Juniors Ativo 135 / 133 40% 3 23.09.2027 -
Luís Mata Kairat Ativo 122 / 116 40% 2 21.09.2027 -
Nicolás Fernández Tristán Suárez Ativo 106 / 109 40% 1 18.09.2027 -
Tai Baribo DC United Ativo 128 / 126 40% 1 17.09.2027 -
Shohboz Umarov Bunyodkor Ativo 100 / 105 40% 1 17.09.2027 -
Julián Palacios Envigado Ativo 114 / 116 40% 1 17.09.2027 -
Alexandr Rudenko Lokomotiv Moscow Ativo 113 / 116 40% 6 15.09.2027 -
Yu Hashimoto Avispa Fukuoka Ativo 106 / 108 40% 1 13.09.2027 -
Joel Kojo Navbahor Ativo 102 / 114 40% 3 09.09.2027 -
Sem van Duijn AZ Ativo 132 / 130 40% 1 08.09.2027 -
David Okereke Cremonese Ativo 110 / 118 40% 1 08.09.2027 -
Manuel Guanini Gimnasia y Tiro Ativo 116 / 107 40% 1 08.09.2027 -
Clau Mendes St. Pauli Ativo 128 / 120 40% 1 06.09.2027 -
Bruno Cabrera Lanús Ativo 120 / 122 40% 2 05.09.2027 -
Ryan Hardie Wrexham Ativo 134 / 116 40% 1 04.09.2027 -
Christian Ebere Cruz Azul Ativo 125 / 131 40% 1 04.09.2027 -
Amaury Morales Pumas UNAM Ativo 128 / 125 40% 1 03.09.2027 -
José Ortiz Atletico Bucaramanga Ativo 120 / 115 40% 1 02.09.2027 -
Mariusz Stępiński Jagiellonia Ativo 120 / 117 40% 1 31.08.2027 -
Nicolás Fernández Tristán Suárez Perdido 118 / 107 40% 2 30.08.2027 -
Alisher Odilov Neftchi Ativo 121 / 117 40% 2 28.08.2027 -
Brian Cordoba Cortulua Ativo 112 / 116 40% 4 26.08.2027 -
Lautaro Comas Sportivo Luqueno Ativo 103 / 115 40% 1 26.08.2027 -
Iker Zufiaurre Boca Juniors Ativo 116 / 128 40% 1 23.08.2027 -
Callum Lang Preston Ativo 140 / 129 40% 1 23.08.2027 -
Vyacheslav Grulev Nizhniy Novgorod Ativo 105 / 114 40% 7 22.08.2027 -
Tino Kadewere Panathinaikos Ativo 113 / 123 40% 1 22.08.2027 -
Nicolás Garayalde Liverpool Montevideo Ativo 125 / 124 40% 1 20.08.2027 -
Denis Olivera FC Augsburg Ativo 109 / 108 40% 2 16.08.2027 -
Peter Olayinka Al-Wehda Ativo 123 / 117 40% 1 16.08.2027 -
Manuel Guanini Gimnasia y Tiro Perdido 110 / 117 40% 1 16.08.2027 -
Diego Romero Liverpool Montevideo Ativo 100 / 104 40% 1 13.08.2027 -
Adrián Lapeña Ceuta Ativo 119 / 127 40% 1 13.08.2027 -
Cyle Larin Mallorca Ativo 108 / 131 40% 1 12.08.2027 -
Abubeker Nasir Mamelodi Sundowns Ativo 106 / 124 40% 1 12.08.2027 -
Gabriel Risso Patrón Colón Ativo 104 / 119 40% 1 07.08.2027 -
Fedde de Jong De Graafschap Ativo 127 / 112 40% 4 06.08.2027 -
German Onugkha Rodina Ativo 111 / 124 40% 4 04.08.2027 -
Cristian Graciano Real Cartagena Ativo 102 / 113 40% 1 04.08.2027 -
Giacomo Quagliata Deportivo La Coruña Ativo 120 / 135 40% 1 02.08.2027 -
Tidiane Keita Ordabasy Ativo 127 / 115 40% 1 30.07.2027 -
Ruslanbek Jiyanov Nizhniy Novgorod Ativo 116 / 112 40% 7 28.07.2027 -
Alejandro Cantero Huesca Ativo 108 / 119 40% 1 27.07.2027 -
Ivan Bašić Astana Ativo 101 / 112 40% 1 26.07.2027 -
Ian Vorogovskiy Astana Ativo 115 / 114 40% 1 26.07.2027 -
Jadsom Al Wahda Ativo 152 / 138 40% 1 26.07.2027 -
Matías Machado Racing Ativo 101 / 112 40% 1 24.07.2027 -
Doğucan Haspolat Westerlo Ativo 126 / 131 40% 1 24.07.2027 -
Brayan Moreno America de Cali Ativo 107 / 108 40% 2 22.07.2027 -
Brian Mansilla Akhmat Grozny Ativo 116 / 123 40% 1 22.07.2027 -
Tasos Donis Volos NPS Ativo 108 / 119 40% 1 20.07.2027 -
Daniel Arcila Leon Ativo 128 / 109 40% 4 19.07.2027 -
Fanil Sungatulin Ural Ativo 117 / 117 40% 2 15.07.2027 -
Tiago Mamede Portimonense Ativo 129 / 122 40% 1 15.07.2027 -
Mingiyan Beveev Baltika Ativo 118 / 118 40% 6 13.07.2027 -
Alexandr Ektov Nizhniy Novgorod Ativo 114 / 109 40% 5 12.07.2027 -
Sven Karič Nizhniy Novgorod Ativo 113 / 123 40% 8 10.07.2027 -
Ilja Vakhania Krasnodar Ativo 118 / 117 40% 4 10.07.2027 -
Ismael Akhmat Grozny Ativo 113 / 123 40% 7 09.07.2027 -
Kevin Palacios Santos Laguna Ativo 123 / 122 40% 1 09.07.2027 -
Rifat Zhemaletdinov Ural Ativo 109 / 114 40% 7 08.07.2027 -
Roman Yezhov Sochi Ativo 104 / 109 40% 6 07.07.2027 -
Alexandr Lomovitskiy Torpedo-BelAZ Ativo 102 / 112 40% 1 07.07.2027 -
Edgardo Fariña Nizhniy Novgorod Ativo 123 / 117 40% 4 05.07.2027 -
Zoran Marušić Neftchi Ativo 117 / 107 51% 1 05.07.2027 -
Bobur Abdiholiqov Nasaf Ativo 117 / 107 40% 4 03.07.2027 -
Andrés Ferrari Sint-Truiden Ativo 137 / 131 40% 1 02.07.2027 -
Oskar Spiten-Nysæter Molde Ativo 98 / 129 40% 1 02.07.2027 -
Martin Sekulić Ural Ativo 107 / 105 40% 4 30.06.2027 -
Chinedu Geoffrey Dinamo Moscow Ativo 109 / 113 40% 1 28.06.2027 -
Mihajlo Banjac Krylya Sovetov Ativo 108 / 109 40% 3 25.06.2027 -
Stefan Lončar Akron Ativo 123 / 119 40% 2 23.06.2027 -
Facundo Kruspzky Al Wahda Ativo 142 / 122 40% 1 22.06.2027 -
Mamadou Maïga Nizhniy Novgorod Ativo 107 / 117 40% 1 21.06.2027 -
Jhon Palacios Orenburg Ativo 117 / 114 40% 1 21.06.2027 -
Renato Júnior Al Wasl Ativo 119 / 123 40% 1 21.06.2027 -
Bruno Damiani Philadelphia Union Ativo 111 / 113 40% 1 14.06.2027 -
Temirkan Sundukov Dinamo Makhachkala Ativo 102 / 110 40% 1 14.06.2027 -
Kirill Schetinin Akhmat Grozny Ativo 127 / 112 40% 6 13.06.2027 -
Miloš Brnović Arsenal Tula Ativo 113 / 113 40% 3 11.06.2027 -
Sergey Babkin Lokomotiv Moscow Ativo 107 / 119 40% 1 29.05.2027 -
Däuren Jūmat Tobol Ativo 115 / 112 40% 1 28.05.2027 -
Ivan Komarov Rostov Ativo 103 / 109 40% 3 27.05.2027 -
Dmitry Skopintsev Dinamo Moscow Ativo 115 / 112 40% 8 22.05.2027 -
Leonardo Mendicino Bari Ativo 113 / 131 40% 1 17.05.2027 -
Andrey Langovich Rostov Ativo 116 / 119 40% 2 16.05.2027 -
Álex Petxarromán Ceuta Ativo 108 / 121 40% 2 16.05.2027 -
Maxim Mukhin Rostov Ativo 115 / 115 40% 6 13.05.2027 -
Dominik Oroz Krylya Sovetov Ativo 115 / 111 40% 1 12.05.2027 -
Léo Cordeiro Ural Ativo 103 / 105 40% 2 09.05.2027 -
Ylber Ramadani Lecce Ativo 149 / 120 40% 3 30.04.2027 -
Andrés Alarcón Dinamo Makhachkala Ativo 121 / 114 40% 3 25.04.2027 -
Kevin Pina Krasnodar Ativo 118 / 129 40% 2 23.04.2027 -
Dmitry Pestryakov Spartak Moscow Ativo 113 / 121 40% 3 18.04.2027 -
Artem Makarchuk Sochi Ativo 104 / 111 40% 2 16.04.2027 -
Khetag Khosonov Akron Ativo 105 / 117 40% 3 16.04.2027 -
Kirill Pechenin Krylya Sovetov Ativo 124 / 117 40% 2 14.04.2027 -
Galymzhan Kenzhebek Akhmat Grozny Ativo 116 / 118 40% 4 13.04.2027 -
Georgy Melkadze Akhmat Grozny Ativo 105 / 114 40% 7 12.04.2027 -
Nemanja Stojić Sochi Ativo 107 / 112 40% 2 08.04.2027 -
Gerzino Nyamsi Lokomotiv Moscow Ativo 118 / 124 40% 1 04.04.2027 -
Mohammad Javad Hosseinnejad Dinamo Makhachkala Ativo 103 / 108 40% 1 29.03.2027 -
Ralph Orquin Cruz Azul Ativo 123 / 115 40% 1 04.03.2027 -
Maksim Samorodov Akhmat Grozny Ativo 119 / 123 40% 2 26.02.2027 -
Egas Cacintura Akhmat Grozny Ativo 125 / 122 40% 2 25.02.2027 -
El Mehdi Maouhoub Dinamo Moscow Ativo 111 / 119 40% 3 22.02.2027 -
Arsen Adamov Akhmat Grozny Ativo 129 / 118 40% 5 22.02.2027 -
Ugochukwu Iwu Rubin Ativo 126 / 122 40% 2 21.02.2027 -
Mikhail Ignatov Sochi Ativo 122 / 110 40% 4 20.02.2027 -
Alexey Mironov Rostov Ativo 120 / 114 40% 5 17.02.2027 -
Irakly Manelov Baltika Ativo 109 / 114 40% 1 15.02.2027 -
Ruslan Bezrukov Rubin Ativo 109 / 117 40% 1 12.02.2027 -
Victor Melekhin Rostov Ativo 123 / 126 40% 1 07.02.2027 -
Denis Makarov Krylya Sovetov Ativo 132 / 122 40% 1 06.02.2027 -
Dardan Shabanhaxhaj Rubin Ativo 120 / 119 40% 1 06.02.2027 -
Anderson Arroyo Rubin Ativo 121 / 115 40% 1 04.02.2027 -
Nikita Kakkoev Nizhniy Novgorod Ativo 117 / 121 40% 2 03.02.2027 -
Nikita Krivtsov Krasnodar Ativo 132 / 122 40% 1 02.02.2027 -
Ítalo Ural Ativo 116 / 113 40% 1 13.01.2027 -
Hamidullo Abdunabiyev AGMK Ativo 102 / 109 51% 1 03.01.2027 -
Maxim Mishutin Ryazan Ativo 72 / 67 40% 1 29.12.2026 -
Dmitry Tsypchenko Torpedo Moscow Ativo 97 / 99 40% 4 27.12.2026 -
Mohamed Konaté Akhmat Grozny Ativo 119 / 107 40% 2 27.12.2026 -
Alexandr Yushin Torpedo Moscow Ativo 107 / 108 40% 4 26.12.2026 -
Gamid Agalarov Dinamo Makhachkala Ativo 102 / 112 40% 5 22.12.2026 -
Chinonso Offor Baltika Ativo 110 / 105 40% 2 16.12.2026 -
Edarlyn Reyes Rostov Ativo 111 / 114 40% 1 16.12.2026 -
Serder Serderov Ativo 92 / 96 40% 2 09.12.2026 -
David Karaev KAMAZ Ativo 112 / 99 40% 1 08.12.2026 Mais informações
Vladislav Sarveli Nizhniy Novgorod Ativo 116 / 107 40% 2 06.12.2026 -
Ilja Safronov Rotor Ativo 113 / 103 40% 1 04.12.2026 -
Hazem Mastouri Dinamo Makhachkala Ativo 110 / 113 40% 5 03.12.2026 -
Alexandr Saplinov Volga Ativo 102 / 99 40% 2 27.11.2026 -
Jonathan Okoronkwo Torpedo Moscow Ativo 92 / 103 40% 1 25.11.2026 -
Georgy Gongadze Ufa Ativo 102 / 108 40% 1 25.11.2026 -
Pavel Meleshin Sochi Ativo 115 / 125 40% 1 18.11.2026 -
Timofey Marinkin Dinamo Moscow Ativo 82 / 92 40% 1 14.11.2026 -
Husain Norchayev Navbahor Ativo 103 / 109 40% 5 06.11.2026 -
Maxim Ofitserov Kuban Ativo 72 / 73 40% 1 31.10.2026 -
Marat Kovalkov Rostov Ativo 72 / 84 40% 1 31.10.2026 -
David Bolataev Dinamo Vladivostok Ativo 74 / 81 40% 2 27.10.2026 -
Isaac Matondo Koper Ativo 107 / 104 40% 3 26.10.2026 -
Steven Alfred Torpedo-BelAZ Ativo 88 / 102 40% 2 26.10.2026 -
Ryan Mmaee Atlas Ativo 103 / 115 40% 1 25.10.2026 -
Ezra Mayers West Ham United Ativo 126 / 132 40% 1 24.10.2026 -
David Barbona Defensa y Justicia Ativo 129 / 126 40% 3 22.10.2026 -
Aziz Xolmurodov AGMK Ativo 92 / 99 40% 3 22.10.2026 -
Stefan Čolović Nasaf Ativo 93 / 99 40% 2 17.10.2026 -
Kenan Dervišagić Floriana Ativo 102 / 85 40% 1 16.10.2026 -
Mikhail Schetinin Lokomotiv Moscow Ativo 91 / 100 40% 1 16.10.2026 -
Daniil Chevardin Lokomotiv Moscow Ativo 64 / 76 40% 1 16.10.2026 -
Ravshan Xayrullayev Bukhara Ativo 86 / 98 40% 2 15.10.2026 -
Martin Boakye Andijon Ativo 120 / 97 40% 1 14.10.2026 -
Illaijh de Ruijter ADO Den Haag Ativo 130 / 122 40% 1 13.10.2026 -
Otabek Ahadov Sogdiana Ativo 109 / 111 40% 1 13.10.2026 -
Oumar Camara Vitoria Guimaraes Ativo 126 / 141 40% 1 11.10.2026 -
Rauno Sappinen Flora Ativo 115 / 102 40% 2 10.10.2026 -
Jurica Poldrugač Rudes Ativo 106 / 106 40% 1 09.10.2026 -
Luka Đorđević Sogdiana Rejeitado 99 / 100 40% 2 07.10.2026 -
Sédé Dion SuperSport United Ativo 93 / 94 40% 1 07.10.2026 -
Jeremy Rafanello Philadelphia Union Ativo 100 / 111 40% 2 06.10.2026 -
Savely Nikiforov Zenit Ativo 74 / 70 40% 1 02.10.2026 -
Nikita Vershinin Zenit Ativo 85 / 95 40% 1 02.10.2026 -
Dmitry Borodin Dinamo St Petersburg Ativo 83 / 78 40% 1 28.09.2026 -
Rodin Quiñónes Junior Ativo 109 / 113 40% 2 26.09.2026 -
Patrick Schmidt Tarxien Rainbows Ativo 103 / 106 40% 2 26.09.2026 -
Thiago Acosta River Plate Ativo 100 / 116 40% 1 22.09.2026 -
Oliver Heiðarsson Lokomotiva Zagreb Ativo 96 / 116 40% 1 20.09.2026 -
Bojan Radulović Huddersfield Town Ativo 114 / 113 40% 1 18.09.2026 -
Amir To'raqulov Bunyodkor Ativo 98 / 98 40% 2 12.09.2026 -
Enzo Larrosa Independiente Medellin Ativo 99 / 98 40% 1 12.09.2026 -
Juan Giménez Rayo Vallecano Ativo 130 / 135 40% 1 12.09.2026 -
Gonzalo Córdoba Mitre Ativo 92 / 97 40% 1 09.09.2026 -
Oleksiy Shchebetun Qizilqum Ativo 103 / 102 40% 1 08.09.2026 -
Uroš Đuranović Sliema Wanderers Ativo 92 / 102 40% 1 08.09.2026 -
Marvin Kaleta Rotherham United Ativo 115 / 99 40% 1 31.08.2026 -
Alfie Harrison Milton Keynes Dons Ativo 93 / 93 40% 1 31.08.2026 -
Eyad El Askalany Rostov Ativo 84 / 104 40% 1 27.08.2026 -
Jules-Anthony Vilsaint Toronto FC Ativo 94 / 110 40% 1 26.08.2026 -
Tom Iorpenda Swansea City Ativo 107 / 112 40% 1 23.08.2026 -
Kieran Chandler Minnesota United FC Ativo 87 / 87 40% 1 22.08.2026 -
Kiano Dyer Chelsea Ativo 117 / 95 40% 1 22.08.2026 -
Lautaro Quiroga Defensa y Justicia Ativo 88 / 105 40% 1 21.08.2026 -
German Ignatov Rostov Ativo 87 / 101 40% 1 21.08.2026 -
Iker Córdoba Valencia Ativo 95 / 130 40% 1 19.08.2026 -
George McCormick Middlesbrough Ativo 100 / 108 40% 1 18.08.2026 -
Farruh Sayfiyev Neftchi Perdido 109 / 105 51% 1 17.08.2026 -
Tomás Arias Independiente Rivadavia Ativo 102 / 104 40% 1 10.08.2026 -
Shukron Yo'ldoshev Navbahor Ativo 92 / 103 51% 1 03.08.2026 -
Juan Pablo Posse Atlético Tucumán Ativo 89 / 96 40% 1 03.08.2026 -